Time,TemperatureF,DewpointF,PressureIn,WindDirection,WindDirectionDegrees,WindSpeedMPH,WindSpeedGustMPH,Humidity,HourlyPrecipIn,Conditions,Clouds,dailyrainin,SolarRadiationWatts/m^2,SoftwareType,DateUTC
2013-05-28 00:10:00,58.0,54.8,29.78,WNW,294,1.0,1.0,89,0.00,,,0.00,0,Wunderground v.1.15,2013-05-27 22:10:00,
2013-05-28 00:20:00,57.7,54.5,29.78,WNW,294,2.0,2.0,89,0.00,,,0.00,0,Wunderground v.1.15,2013-05-27 22:20:00,
2013-05-28 00:31:00,57.5,54.3,29.79,WNW,294,1.0,1.0,89,0.00,,,0.00,0,Wunderground v.1.15,2013-05-27 22:31:00,
2013-05-28 00:50:00,57.1,53.9,29.79,WNW,286,1.0,3.0,89,0.00,,,0.00,0,Wunderground v.1.15,2013-05-27 22:50:00,
2013-05-28 01:05:00,57.1,53.9,29.78,NW,304,0.0,0.0,89,0.00,,,0.00,0,Wunderground v.1.15,2013-05-27 23:05:00,
2013-05-28 01:16:00,56.9,53.7,29.79,NW,304,0.0,0.0,89,0.00,,,0.00,0,Wunderground v.1.15,2013-05-27 23:16:00,
2013-05-28 01:30:00,56.4,53.2,29.79,WSW,255,1.0,1.0,89,0.00,,,0.00,0,Wunderground v.1.15,2013-05-27 23:30:00,
2013-05-28 01:40:00,56.2,53.0,29.79,West,274,2.0,2.0,89,0.00,,,0.00,0,Wunderground v.1.15,2013-05-27 23:40:00,
2013-05-28 01:51:00,56.1,53.8,29.78,West,277,2.0,3.0,92,0.00,,,0.00,0,Wunderground v.1.15,2013-05-27 23:51:00,
2013-05-28 02:06:00,56.3,53.4,29.78,West,269,2.0,3.0,90,0.00,,,0.00,0,Wunderground v.1.15,2013-05-28 00:06:00,
2013-05-28 02:20:00,56.5,53.6,29.77,WNW,290,3.0,3.0,90,0.00,,,0.00,0,Wunderground v.1.15,2013-05-28 00:20:00,
2013-05-28 02:35:00,56.6,53.7,29.77,WSW,255,2.0,3.0,90,0.00,,,0.00,0,Wunderground v.1.15,2013-05-28 00:35:00,
2013-05-28 02:50:00,56.5,53.6,29.77,West,265,3.0,4.0,90,0.00,,,0.00,0,Wunderground v.1.15,2013-05-28 00:50:00,
2013-05-28 03:06:00,56.1,53.2,29.76,WNW,300,3.0,3.0,90,0.00,,,0.00,0,Wunderground v.1.15,2013-05-28 01:06:00,
2013-05-28 03:20:00,55.7,52.8,29.76,WNW,292,2.0,4.0,90,0.00,,,0.00,0,Wunderground v.1.15,2013-05-28 01:20:00,
2013-05-28 03:40:00,55.0,52.1,29.75,West,259,1.0,2.0,90,0.00,,,0.00,0,Wunderground v.1.15,2013-05-28 01:40:00,
2013-05-28 03:50:00,54.6,51.4,29.75,WNW,292,3.0,3.0,89,0.00,,,0.00,0,Wunderground v.1.15,2013-05-28 01:50:00,
2013-05-28 04:05:00,54.4,51.5,29.75,WNW,284,3.0,4.0,90,0.00,,,0.01,0,Wunderground v.1.15,2013-05-28 02:05:00,
2013-05-28 04:20:00,54.5,51.3,29.75,West,279,3.0,3.0,89,0.00,,,0.01,0,Wunderground v.1.15,2013-05-28 02:20:00,
2013-05-28 04:26:00,54.8,51.6,29.74,West,269,3.0,3.0,89,0.00,,,0.01,0,Wunderground v.1.15,2013-05-28 02:26:00,
2013-05-28 04:41:00,55.1,51.6,29.74,West,272,2.0,3.0,88,0.00,,,0.01,0,Wunderground v.1.15,2013-05-28 02:41:00,
2013-05-28 04:55:00,55.7,51.6,29.74,WSW,247,3.0,4.0,86,0.00,,,0.01,0,Wunderground v.1.15,2013-05-28 02:55:00,
2013-05-28 05:10:00,55.8,51.0,29.74,WSW,244,2.0,3.0,84,0.00,,,0.01,0,Wunderground v.1.15,2013-05-28 03:10:00,
2013-05-28 05:25:00,55.0,50.3,29.74,SSE,165,2.0,2.0,84,0.00,,,0.01,0,Wunderground v.1.15,2013-05-28 03:25:00,
2013-05-28 05:40:00,54.6,49.9,29.74,SSE,165,1.0,3.0,84,0.00,,,0.01,0,Wunderground v.1.15,2013-05-28 03:40:00,
2013-05-28 05:55:00,54.3,49.9,29.73,WNW,302,3.0,5.0,85,0.00,,,0.01,0,Wunderground v.1.15,2013-05-28 03:55:00,
2013-05-28 06:06:00,54.4,50.0,29.73,West,263,4.0,4.0,85,0.00,,,0.01,0,Wunderground v.1.15,2013-05-28 04:06:00,
2013-05-28 06:10:00,54.7,50.3,29.73,SW,214,4.0,4.0,85,0.00,,,0.01,0,Wunderground v.1.15,2013-05-28 04:10:00,
2013-05-28 06:15:00,55.1,51.0,29.74,SW,234,4.0,4.0,86,0.00,,,0.01,0,Wunderground v.1.15,2013-05-28 04:15:00,
2013-05-28 06:20:00,55.2,51.1,29.73,WNW,286,3.0,3.0,86,0.00,,,0.01,0,Wunderground v.1.15,2013-05-28 04:20:00,
2013-05-28 06:35:00,55.9,51.8,29.73,WNW,290,2.0,2.0,86,0.00,,,0.01,9,Wunderground v.1.15,2013-05-28 04:35:00,
2013-05-28 06:46:00,56.1,51.7,29.73,WNW,285,3.0,4.0,85,0.00,,,0.01,18,Wunderground v.1.15,2013-05-28 04:46:00,
2013-05-28 06:55:00,56.7,52.2,29.73,WSW,256,4.0,4.0,85,0.00,,,0.01,46,Wunderground v.1.15,2013-05-28 04:55:00,
2013-05-28 07:05:00,57.0,52.5,29.73,WSW,244,3.0,4.0,85,0.00,,,0.01,74,Wunderground v.1.15,2013-05-28 05:05:00,
2013-05-28 07:15:00,57.9,53.4,29.73,SW,224,3.0,3.0,85,0.00,,,0.01,62,Wunderground v.1.15,2013-05-28 05:15:00,
2013-05-28 07:26:00,58.6,54.1,29.73,West,274,3.0,3.0,85,0.00,,,0.01,54,Wunderground v.1.15,2013-05-28 05:26:00,
2013-05-28 07:35:00,59.0,54.5,29.73,WSW,245,4.0,8.0,85,0.00,,,0.01,49,Wunderground v.1.15,2013-05-28 05:35:00,
2013-05-28 07:45:00,59.2,54.4,29.73,West,264,5.0,5.0,84,0.00,,,0.01,74,Wunderground v.1.15,2013-05-28 05:45:00,
2013-05-28 08:05:00,59.8,55.0,29.73,West,274,5.0,5.0,84,0.00,,,0.01,109,Wunderground v.1.15,2013-05-28 06:05:00,
2013-05-28 08:15:00,60.0,55.2,29.73,WSW,240,5.0,5.0,84,0.00,,,0.01,134,Wunderground v.1.15,2013-05-28 06:15:00,
2013-05-28 08:30:00,60.5,56.0,29.73,West,261,5.0,6.0,85,0.00,,,0.01,135,Wunderground v.1.15,2013-05-28 06:30:00,
2013-05-28 08:40:00,60.8,56.3,29.74,WSW,239,5.0,5.0,85,0.00,,,0.01,162,Wunderground v.1.15,2013-05-28 06:40:00,
2013-05-28 08:55:00,61.2,56.3,29.74,SW,219,7.0,7.0,84,0.00,,,0.01,174,Wunderground v.1.15,2013-05-28 06:55:00,
2013-05-28 09:10:00,61.4,56.2,29.74,SW,218,4.0,4.0,83,0.00,,,0.01,192,Wunderground v.1.15,2013-05-28 07:10:00,
2013-05-28 09:25:00,61.8,56.6,29.74,WSW,240,4.0,4.0,83,0.00,,,0.01,163,Wunderground v.1.15,2013-05-28 07:25:00,
2013-05-28 09:35:00,62.1,57.2,29.74,South,169,4.0,5.0,84,0.00,,,0.01,469,Wunderground v.1.15,2013-05-28 07:35:00,
2013-05-28 09:46:00,62.7,57.5,29.74,SW,234,4.0,4.0,83,0.00,,,0.01,216,Wunderground v.1.15,2013-05-28 07:46:00,
2013-05-28 09:55:00,62.7,57.5,29.74,SW,216,4.0,5.0,83,0.00,,,0.01,209,Wunderground v.1.15,2013-05-28 07:55:00,
2013-05-28 10:06:00,62.5,56.9,29.73,West,260,6.0,8.0,82,0.00,,,0.01,276,Wunderground v.1.15,2013-05-28 08:06:00,
2013-05-28 10:20:00,63.0,57.1,29.73,SW,223,5.0,5.0,81,0.00,,,0.01,751,Wunderground v.1.15,2013-05-28 08:20:00,
2013-05-28 10:35:00,64.3,57.3,29.73,WSW,238,4.0,8.0,78,0.00,,,0.01,206,Wunderground v.1.15,2013-05-28 08:35:00,
2013-05-28 10:45:00,64.8,57.4,29.73,SW,222,4.0,5.0,77,0.00,,,0.01,323,Wunderground v.1.15,2013-05-28 08:45:00,
2013-05-28 11:05:00,65.4,57.3,29.72,SSW,199,4.0,4.0,75,0.00,,,0.01,299,Wunderground v.1.15,2013-05-28 09:05:00,
2013-05-28 11:11:00,66.3,57.8,29.72,SSW,205,4.0,5.0,74,0.00,,,0.01,911,Wunderground v.1.15,2013-05-28 09:11:00,
2013-05-28 11:25:00,67.6,57.9,29.72,SW,231,5.0,7.0,71,0.00,,,0.01,881,Wunderground v.1.15,2013-05-28 09:25:00,
2013-05-28 11:31:00,68.3,58.1,29.72,SW,233,6.0,7.0,70,0.00,,,0.01,893,Wunderground v.1.15,2013-05-28 09:31:00,
2013-05-28 12:56:00,71.9,54.9,29.71,SSW,196,3.0,14.0,55,0.00,,,0.00,969,Wunderground v.1.15,2013-05-28 10:56:00,
2013-05-28 13:05:00,72.5,54.9,29.71,SSW,202,6.0,6.0,54,0.00,,,0.00,976,Wunderground v.1.15,2013-05-28 11:05:00,
2013-05-28 13:10:00,72.6,55.0,29.71,SSE,166,6.0,14.0,54,0.00,,,0.00,977,Wunderground v.1.15,2013-05-28 11:10:00,
2013-05-28 13:21:00,73.0,54.9,29.71,South,189,6.0,14.0,53,0.00,,,0.00,972,Wunderground v.1.15,2013-05-28 11:21:00,
2013-05-28 13:26:00,73.1,54.9,29.71,WSW,250,6.0,6.0,53,0.00,,,0.00,977,Wunderground v.1.15,2013-05-28 11:26:00,
2013-05-28 13:36:00,73.7,53.9,29.71,SSW,202,6.0,13.0,50,0.00,,,0.00,1004,Wunderground v.1.15,2013-05-28 11:36:00,
2013-05-28 13:50:00,74.1,53.7,29.70,SW,230,7.0,11.0,49,0.00,,,0.00,1004,Wunderground v.1.15,2013-05-28 11:50:00,
2013-05-28 14:05:00,74.0,53.1,29.71,South,183,7.0,15.0,48,0.00,,,0.00,976,Wunderground v.1.15,2013-05-28 12:05:00,
2013-05-28 14:21:00,74.4,51.7,29.70,WSW,242,6.0,9.0,45,0.00,,,0.00,988,Wunderground v.1.15,2013-05-28 12:21:00,
2013-05-28 14:40:00,74.2,47.6,29.70,WNW,300,6.0,6.0,39,0.00,,,0.00,970,Wunderground v.1.15,2013-05-28 12:40:00,
2013-05-28 14:55:00,74.2,47.0,29.70,West,276,6.0,6.0,38,0.00,,,0.00,958,Wunderground v.1.15,2013-05-28 12:55:00,
2013-05-28 15:05:00,75.3,47.2,29.69,SW,232,5.0,12.0,37,0.00,,,0.00,947,Wunderground v.1.15,2013-05-28 13:05:00,
2013-05-28 15:20:00,76.2,47.3,29.69,NW,310,5.0,12.0,36,0.00,,,0.00,932,Wunderground v.1.15,2013-05-28 13:20:00,
2013-05-28 15:31:00,74.8,46.1,29.70,SW,231,8.0,8.0,36,0.00,,,0.00,923,Wunderground v.1.15,2013-05-28 13:31:00,
2013-05-28 15:50:00,74.4,45.7,29.70,WNW,286,7.0,7.0,36,0.00,,,0.00,879,Wunderground v.1.15,2013-05-28 13:50:00,
2013-05-28 15:55:00,74.4,46.4,29.70,WSW,249,7.0,13.0,37,0.00,,,0.00,872,Wunderground v.1.15,2013-05-28 13:55:00,
2013-05-28 16:10:00,74.2,46.2,29.70,WSW,250,7.0,7.0,37,0.00,,,0.00,844,Wunderground v.1.15,2013-05-28 14:10:00,
2013-05-28 16:20:00,73.6,45.7,29.70,West,271,7.0,13.0,37,0.00,,,0.00,831,Wunderground v.1.15,2013-05-28 14:20:00,
2013-05-28 16:30:00,73.2,46.8,29.70,SW,215,7.0,7.0,39,0.00,,,0.00,795,Wunderground v.1.15,2013-05-28 14:30:00,
2013-05-28 16:41:00,72.8,47.1,29.71,West,271,7.0,7.0,40,0.00,,,0.00,772,Wunderground v.1.15,2013-05-28 14:41:00,
2013-05-28 17:05:00,72.8,47.1,29.72,WNW,293,5.0,14.0,40,0.00,,,0.00,717,Wunderground v.1.15,2013-05-28 15:05:00,
2013-05-28 17:20:00,71.7,48.0,29.72,SW,232,4.0,4.0,43,0.00,,,0.00,671,Wunderground v.1.15,2013-05-28 15:20:00,
2013-05-28 17:35:00,72.4,47.4,29.71,WSW,253,4.0,4.0,41,0.00,,,0.00,652,Wunderground v.1.15,2013-05-28 15:35:00,
2013-05-28 17:41:00,72.5,47.5,29.71,NW,313,4.0,10.0,41,0.00,,,0.00,628,Wunderground v.1.15,2013-05-28 15:41:00,
2013-05-28 17:50:00,72.6,47.5,29.71,WNW,290,5.0,11.0,41,0.00,,,0.00,615,Wunderground v.1.15,2013-05-28 15:50:00,
2013-05-28 17:55:00,72.8,47.1,29.71,SE,135,4.0,4.0,40,0.00,,,0.00,606,Wunderground v.1.15,2013-05-28 15:55:00,
2013-05-28 18:11:00,72.1,47.1,29.71,SW,229,6.0,11.0,41,0.00,,,0.00,285,Wunderground v.1.15,2013-05-28 16:11:00,
2013-05-28 18:30:00,70.7,47.7,29.71,WSW,254,6.0,11.0,44,0.00,,,0.00,454,Wunderground v.1.15,2013-05-28 16:30:00,
2013-05-28 18:45:00,69.9,47.6,29.71,West,280,6.0,13.0,45,0.00,,,0.00,135,Wunderground v.1.15,2013-05-28 16:45:00,
2013-05-28 18:55:00,69.1,47.4,29.71,West,270,6.0,6.0,46,0.00,,,0.00,193,Wunderground v.1.15,2013-05-28 16:55:00,
2013-05-28 19:10:00,68.4,48.5,29.72,NW,326,5.0,5.0,49,0.00,,,0.00,153,Wunderground v.1.15,2013-05-28 17:10:00,
2013-05-28 19:20:00,67.8,49.0,29.73,NW,325,5.0,5.0,51,0.00,,,0.00,77,Wunderground v.1.15,2013-05-28 17:20:00,
2013-05-28 19:31:00,67.0,49.8,29.73,NW,318,4.0,8.0,54,0.00,,,0.00,90,Wunderground v.1.15,2013-05-28 17:31:00,
2013-05-28 19:45:00,66.0,50.3,29.74,WNW,299,4.0,4.0,57,0.00,,,0.00,69,Wunderground v.1.15,2013-05-28 17:45:00,
2013-05-28 20:05:00,65.4,49.8,29.74,WNW,288,2.0,2.0,57,0.00,,,0.00,35,Wunderground v.1.15,2013-05-28 18:05:00,
2013-05-28 20:20:00,65.4,48.8,29.74,WSW,252,1.0,1.0,55,0.00,,,0.00,37,Wunderground v.1.15,2013-05-28 18:20:00,
2013-05-28 20:35:00,65.6,49.0,29.74,SSW,192,1.0,1.0,55,0.00,,,0.00,14,Wunderground v.1.15,2013-05-28 18:35:00,
2013-05-28 20:46:00,65.5,48.9,29.74,SSW,192,0.0,1.0,55,0.00,,,0.00,9,Wunderground v.1.15,2013-05-28 18:46:00,
2013-05-28 20:55:00,65.5,48.9,29.74,SSW,192,0.0,2.0,55,0.00,,,0.00,0,Wunderground v.1.15,2013-05-28 18:55:00,
2013-05-28 21:10:00,65.2,50.0,29.75,SSW,211,1.0,1.0,58,0.00,,,0.00,0,Wunderground v.1.15,2013-05-28 19:10:00,
2013-05-28 21:25:00,64.6,49.0,29.75,WNW,302,3.0,6.0,57,0.00,,,0.00,0,Wunderground v.1.15,2013-05-28 19:25:00,
2013-05-28 21:35:00,64.5,48.4,29.76,West,279,4.0,7.0,56,0.00,,,0.00,0,Wunderground v.1.15,2013-05-28 19:35:00,
2013-05-28 21:40:00,64.3,47.3,29.76,WNW,298,4.0,11.0,54,0.00,,,0.00,0,Wunderground v.1.15,2013-05-28 19:40:00,
2013-05-28 21:50:00,63.9,47.9,29.76,North,355,4.0,4.0,56,0.00,,,0.00,0,Wunderground v.1.15,2013-05-28 19:50:00,
2013-05-28 22:05:00,63.2,48.2,29.77,WNW,291,4.0,8.0,58,0.00,,,0.00,0,Wunderground v.1.15,2013-05-28 20:05:00,
2013-05-28 22:15:00,62.8,49.1,29.78,NW,319,3.0,6.0,61,0.00,,,0.00,0,Wunderground v.1.15,2013-05-28 20:15:00,
2013-05-28 22:26:00,62.5,49.3,29.78,NW,315,3.0,3.0,62,0.00,,,0.00,0,Wunderground v.1.15,2013-05-28 20:26:00,
2013-05-28 22:40:00,61.9,50.4,29.78,NNW,327,3.0,5.0,66,0.00,,,0.00,0,Wunderground v.1.15,2013-05-28 20:40:00,
2013-05-28 22:50:00,61.3,49.8,29.80,West,265,2.0,2.0,66,0.00,,,0.00,0,Wunderground v.1.15,2013-05-28 20:50:00,
2013-05-28 23:05:00,60.7,49.3,29.80,West,265,3.0,3.0,66,0.00,,,0.00,0,Wunderground v.1.15,2013-05-28 21:05:00,
2013-05-28 23:16:00,60.7,49.3,29.80,WSW,244,2.0,7.0,66,0.00,,,0.00,0,Wunderground v.1.15,2013-05-28 21:16:00,
2013-05-28 23:21:00,60.7,49.3,29.80,SSW,205,2.0,9.0,66,0.00,,,0.00,0,Wunderground v.1.15,2013-05-28 21:21:00,
2013-05-28 23:35:00,60.7,49.3,29.80,SE,126,3.0,3.0,66,0.00,,,0.00,0,Wunderground v.1.15,2013-05-28 21:35:00,
2013-05-28 23:46:00,60.9,50.3,29.81,NNE,30,2.0,2.0,68,0.00,,,0.00,0,Wunderground v.1.15,2013-05-28 21:46:00,